Location: Chèvreville
(49.1099°N, 2.8495°E)
Time: 15:11:27
(UTC+00:00)

SO-50 - Pass Details

Date: 08 December 2023
Orbit: 608 x 661 km, 64.6° (Epoch: 28 February)

Event Time Altitude Azimuth Distance (km) Brightness Sun altitude
Exits shadow 04:24:49 15° 17° (NNE) 1,747 ? -29.1°
Drops below altitude 10° 04:25:49 10° 26° (NNE) 2,058 ? -29.0°
Sets 04:28:21 0° 38° (NE) 2,946 ? -28.5°
